Regional Weather Roundup
Issued by NWS

Home | Current Version | Previous Version | Graphics & Text | Print | Product List | Glossary Off
Versions: 1 2 3 4 5 6 7 8 9 10 11 12 13 14 15 16 17 18 19 20 21 22 23 24 25 26 27 28 29 30 31 32 33 34 35 36 37 38 39 40 41 42 43 44 45 46 47 48 49 50

000
ASUS43 KMKX 061221
RWRWI

WISCONSIN REGIONAL WEATHER ROUNDUP
NATIONAL WEATHER SERVICE MILWAUKEE/SULLIVAN WI
700 AM CDT WED MAY 06 2015

NOTE: "FAIR" INDICATES FEW OR NO CLOUDS BELOW 12,000 FEET WITH NO
SIGNIFICANT WEATHER AND/OR OBSTRUCTIONS TO VISIBILITY.

WIZ001-002-006>008-014>016-023>028-061300-
NORTHWEST WISCONSIN

CITY           SKY/WX    TMP DP  RH WIND       PRES   REMARKS
SUPERIOR ARPT  CLOUDY    40  38  92 NE6       30.13R
6HR MIN TEMP:  40; 6HR MAX TEMP:  43; 6HR PCP:  0.13;

ASHLAND        CLOUDY    52  40  63 CALM      30.15S
6HR MIN TEMP:  37; 6HR MAX TEMP:  53;

HAYWARD        CLOUDY    52  47  83 SE9       30.14S
6HR MIN TEMP:  52; 6HR MAX TEMP:  56; 6HR PCP: TRACE;

SIREN          CLOUDY    53  49  87 SE6       30.10S
6HR MIN TEMP:  52; 6HR MAX TEMP:  59;

CUMBERLAND     CLOUDY    50  48  93 E7        30.12S FOG
RICE LAKE      CLOUDY    52  49  90 E8        30.14S
6HR MIN TEMP:  50; 6HR MAX TEMP:  55; 6HR PCP:  0.12;

CHETEK         CLOUDY    51  50  95 E10       30.13S
6HR MIN TEMP:  50; 6HR MAX TEMP:  54; 6HR PCP:  0.17;

LADYSMITH      CLOUDY    50  49  95 SE9       30.16F
6HR MIN TEMP:  50; 6HR MAX TEMP:  56; 6HR PCP:  0.24;

EAU CLAIRE     CLOUDY    53  50  89 SE10      30.13R
6HR MIN TEMP:  51; 6HR MAX TEMP:  53; 6HR PCP:  0.02;

MENOMONIE      CLOUDY    54  52  93 E12       30.12R FOG
6HR MIN TEMP:  53; 6HR MAX TEMP:  54;

NEW RICHMOND   CLOUDY    53  53  99 E7        30.10R FOG
6HR MIN TEMP:  52; 6HR MAX TEMP:  54; 6HR PCP:  0.05;

OSCEOLA        CLOUDY    54  54 100 E9        30.12R
6HR MIN TEMP:  53; 6HR MAX TEMP:  56; 6HR PCP:  0.23;

$$

WIZ003>005-009-010-017-018-061300-
NORTH CENTRAL WISCONSIN

CITY           SKY/WX    TMP DP  RH WIND       PRES   REMARKS
MANITOWISH WTR CLOUDY    51  38  61 S10       30.18S
6HR MIN TEMP:  48; 6HR MAX TEMP:  52;

ARBOR VITAE    DRIZZLE   52  41  65 S8        30.20R
6HR MIN TEMP:  52; 6HR MAX TEMP:  53;

WOODRUFF       DRIZZLE   52  41  65 S8        30.20R
6HR MIN TEMP:  52; 6HR MAX TEMP:  53;

RHINELANDER    LGT RAIN  47  39  74 S3        30.21R
6HR MIN TEMP:  46; 6HR MAX TEMP:  51; 6HR PCP:  0.05;

EAGLE RIVER    PTSUNNY   51  30  45 S3        30.20R
6HR MIN TEMP:  39; 6HR MAX TEMP:  51;

LAND O LAKES   CLOUDY    47  38  69 CALM      30.21R
6HR MIN TEMP:  35; 6HR MAX TEMP:  47;

PHILLIPS       CLOUDY    47  45  92 SE8       30.17S
6HR MIN TEMP:  46; 6HR MAX TEMP:  55;

TOMAHAWK       CLOUDY    45  42  91 SE3       30.21R FOG
6HR MIN TEMP:  44; 6HR MAX TEMP:  52;

MEDFORD        CLOUDY    47  43  85 E7        30.18R
6HR MIN TEMP:  46; 6HR MAX TEMP:  52; 6HR PCP:  0.04;

MERRILL        RAIN      46  44  95 CALM      30.22R
$$

WIZ029-030-035-036-043>047-061300-
CENTRAL WISCONSIN

CITY           SKY/WX    TMP DP  RH WIND       PRES   REMARKS
WAUSAU         CLOUDY    47  43  86 SE6       30.19S
6HR MIN TEMP:  47; 6HR MAX TEMP:  53; 6HR PCP:  0.13;

MOSINEE        CLOUDY    46  43  87 E8        30.20R
MARSHFIELD     CLOUDY    51  45  79 E12       30.17S
6HR MIN TEMP:  51; 6HR MAX TEMP:  53; 6HR PCP:  0.01;

STEVENS POINT  CLOUDY    48  41  75 NE6       30.20R
6HR MIN TEMP:  47; 6HR MAX TEMP:  51; 6HR PCP:  0.01;

WAUPACA        PTSUNNY   54  41  63 E5        30.21R
6HR MIN TEMP:  53; 6HR MAX TEMP:  56;

WAUTOMA        CLOUDY    51  47  86 E7        30.19F
6HR MIN TEMP:  49; 6HR MAX TEMP:  51; 6HR PCP: TRACE;

WISC RAPIDS    CLOUDY    52  44  74 SE7       30.19R
6HR MIN TEMP:  51; 6HR MAX TEMP:  52; 6HR PCP: TRACE;

CAMP DOUGLAS   CLOUDY    50  50 100 E9        30.16R FOG
                                      6HR PCP: TRACE;

$$

WIZ011>013-019>022-031-037>040-048>050-061300-
NORTHEAST WISCONSIN

CITY           SKY/WX    TMP DP  RH WIND       PRES   REMARKS
ANTIGO         CLOUDY    49  37  65 SE9       30.21R
SHAWANO        LGT RAIN  51  44  77 CALM      30.22R
6HR MIN TEMP:  50; 6HR MAX TEMP:  55; 6HR PCP:  0.05;

OCONTO         CLOUDY    51  42  70 CALM      30.22R
6HR MIN TEMP:  46; 6HR MAX TEMP:  51;

STURGEON BAY   CLOUDY    48  36  61 E3        30.26R
6HR MIN TEMP:  46; 6HR MAX TEMP:  52;

GREEN BAY      RAIN      52  44  74 SE7       30.22R
6HR MIN TEMP:  51; 6HR MAX TEMP:  54; 6HR PCP:  0.02;

MANITOWOC      CLOUDY    48  40  73 E3        30.23R
6HR MIN TEMP:  47; 6HR MAX TEMP:  50; 6HR PCP: TRACE;

APPLETON       PTSUNNY   52  41  66 E7        30.22R
CLINTONVILLE   RAIN      46  45  93 NE3       30.22R
OSHKOSH        CLOUDY    51  44  77 E5        30.20R
6HR MIN TEMP:  49; 6HR MAX TEMP:  53; 6HR PCP:  0.04;

$$

WIZ032>034-041-042-053>061-061300-
SOUTHWEST WISCONSIN

CITY           SKY/WX    TMP DP  RH WIND       PRES   REMARKS
LA CROSSE      CLOUDY    56  53  90 SE7       30.12S FOG
6HR MIN TEMP:  56; 6HR MAX TEMP:  56;

SPARTA         CLOUDY    53  51  95 E8        30.15S FOG
6HR MIN TEMP:  52; 6HR MAX TEMP:  53;

VIROQUA        CLOUDY    52  52 100 E12       30.13S VSB<1/4
6HR MIN TEMP:  51; 6HR MAX TEMP:  52;

BOSCOBEL       CLOUDY    54  52  93 CALM      30.15R FOG
6HR MIN TEMP:  54; 6HR MAX TEMP:  56;

PRAIRIE DU CHI CLOUDY    54  52  94 E6        30.13R FOG
6HR MIN TEMP:  53; 6HR MAX TEMP:  55;

PLATTEVILLE    CLOUDY    52  51  97 E8        30.14S VSB 1/4
6HR MIN TEMP:  51; 6HR MAX TEMP:  52;

$$

WIZ056-057-062-063-064-067-068-061300-
SOUTH CENTRAL WISCONSIN

CITY           SKY/WX    TMP DP  RH WIND       PRES   REMARKS
REEDSBURG      FOG       50  50  99 E3        30.16S VSB 1/2
6HR MIN TEMP:  50; 6HR MAX TEMP:  51;

BARABOO/DELLS  NOT AVBL
LONE ROCK      CLOUDY    53  51  93 E10       30.16S FOG
6HR MIN TEMP:  52; 6HR MAX TEMP:  53;

MINERAL POINT  FOG       54  52  94 SE7       30.15R VSB<1/4
MADISON        CLOUDY    50  48  93 E6        30.18R FOG
6HR MIN TEMP:  49; 6HR MAX TEMP:  52;

MIDDLETON      CLOUDY    51  51  99 E5        30.18R VSB 1/2
6HR MIN TEMP:  51; 6HR MAX TEMP:  53;

WATERTOWN      CLOUDY    49  49 100 E5        30.18R FOG
6HR MIN TEMP:  47; 6HR MAX TEMP:  49;

MONROE         FOG       50  50 100 E6        30.16R VSB<1/4
JANESVILLE     FOG       52  48  87 E7        30.16S VSB 1/2
$$

WIZ051-052-058>065-066-070>072-061300-
SOUTHEAST WISCONSIN

CITY           SKY/WX    TMP DP  RH WIND       PRES   REMARKS
MILWAUKEE      FOG       45  43  93 NE6       30.20S VSB 1/2
6HR MIN TEMP:  45; 6HR MAX TEMP:  47;

WAUKESHA       FOG       46  46 100 NE5       30.20R VSB 1/2
MILWAUKEE/TIMM FOG       45  43  93 CALM      30.21S VSB 1/2
RACINE         FOG       45  44  97 SE5       30.21R VSB<1/4
6HR MIN TEMP:  45; 6HR MAX TEMP:  48;

BURLINGTON     FOG       47  47 100 E3        30.19R VSB<1/4
6HR MIN TEMP:  46; 6HR MAX TEMP:  47;

KENOSHA        FOG       47  46  97 E5        30.19R VSB 1/8
6HR MIN TEMP:  47; 6HR MAX TEMP:  48;

FOND DU LAC    PTSUNNY   51  47  86 E5        30.20S
6HR MIN TEMP:  48; 6HR MAX TEMP:  51; 6HR PCP:  0.01;

SHEBOYGAN      CLOUDY    47  43  86 CALM      30.21S
6HR MIN TEMP:  45; 6HR MAX TEMP:  48; 6HR PCP:  0.09;

WEST BEND      FOG       45  45 100 E5        30.20S VSB<1/4
JUNEAU         CLOUDY    49  48  97 E7        30.20R FOG
6HR MIN TEMP:  47; 6HR MAX TEMP:  50;

$$

LSZ147-162-061300-
LAKE SUPERIOR

STATION/POSITION TIME  TEMP    WIND        PRES    WAVE
                       AIR SEA DIR/SP/G            HT/PER
                 (UTC) (F)     (DEG/KT/KT) (MB)    (FT/S)
W MID LAKE BUOY  1150   40 35   60/  6/  8 1022.7R   1
DEVILS ISLAND    1200   51     110/  6/  7 1021.6F
PORT WING        1140   43      CALM  /  2 1020.3F
SAXON HARBOR     1140   52        CALM     1020.7R
$$

LMZ867-665-643>646-061300-
LAKE MICHIGAN

STATION/POSITION TIME  TEMP    WIND        PRES    WAVE
                       AIR SEA DIR/SP/G            HT/PER
                 (UTC) (F)     (DEG/KT/KT) (MB)    (FT/S)
CHAMBERS ISLAND  1100   45        CALM     1023.4S


USA.gov is the U.S. government's official web portal to all federal, state and local government web resources and services.